When you browse on this site, cookies collect data to enhance your experience and personalize the content and advertising you see.
Visit our Privacy Policy to learn more. By continuing to use the site, you agree to this use of cookies and data.
  • In Czech Republic
  • List of Countries
  • For 7 days
  • Water Temperature
  • Satellite Maps
  • Weather Map
  • Weather Widgets
  • user-avatar
    Login

    Hourly Weather Bobrovo

    Today, 19 February, Tuesday

    Time Temperature Precipitation Wind Pressure Humidity
    00:00 -12°C° 0 mm 6 mps 749 mmHg 84%
    01:00 -13°C° 0 mm 5 mps 750 mmHg 85%
    02:00 -13°C° 0 mm 5 mps 751 mmHg 86%
    03:00 -13°C° 0 mm 5 mps 750 mmHg 87%
    04:00 -14°C° 0 mm 5 mps 751 mmHg 88%
    05:00 -14°C° 0 mm 4 mps 752 mmHg 89%
    06:00 -15°C° 0 mm 4 mps 752 mmHg 90%
    07:00 -15°C° 0 mm 4 mps 753 mmHg 90%
    08:00 -15°C° 0 mm 4 mps 753 mmHg 90%
    09:00 -14°C° 0 mm 4 mps 753 mmHg 90%
    10:00 -12°C° 0 mm 4 mps 753 mmHg 88%
    11:00 -10°C° 0 mm 3 mps 754 mmHg 86%
    12:00 -9°C° 0 mm 3 mps 754 mmHg 85%
    13:00 -9°C° 0 mm 3 mps 754 mmHg 84%
    14:00 -8°C° 0 mm 3 mps 753 mmHg 84%
    15:00 -8°C° 0 mm 3 mps 753 mmHg 84%
    16:00 -9°C° 0 mm 4 mps 753 mmHg 85%
    17:00 -10°C° 0 mm 4 mps 753 mmHg 87%
    18:00 -11°C° 0 mm 4 mps 752 mmHg 88%
    19:00 -11°C° 0 mm 5 mps 752 mmHg 88%
    20:00 -11°C° 0 mm 5 mps 751 mmHg 88%
    21:00 -11°C° 0 mm 5 mps 751 mmHg 88%
    22:00 -11°C° 0 mm 5 mps 751 mmHg 88%
    23:00 -11°C° 0 mm 5 mps 751 mmHg 89%

    Tomorrow, 20 February, Wednesday

    Time Temperature Precipitation Wind Pressure Humidity
    00:00 -11°C° 0 mm 5 mps 750 mmHg 89%
    01:00 -11°C° 0 mm 5 mps 750 mmHg 89%
    02:00 -11°C° 0 mm 5 mps 750 mmHg 89%
    03:00 -11°C° 0 mm 5 mps 750 mmHg 89%
    04:00 -11°C° 0 mm 5 mps 749 mmHg 89%
    05:00 -11°C° 0 mm 5 mps 749 mmHg 89%
    06:00 -11°C° 0 mm 5 mps 748 mmHg 88%
    07:00 -11°C° 0 mm 5 mps 748 mmHg 88%
    08:00 -10°C° 0 mm 6 mps 747 mmHg 87%
    09:00 -10°C° 0 mm 6 mps 747 mmHg 86%
    10:00 -9°C° 0 mm 6 mps 747 mmHg 85%
    11:00 -8°C° 0 mm 7 mps 746 mmHg 83%
    12:00 -6°C° 0 mm 7 mps 746 mmHg 82%
    13:00 -6°C° 0 mm 7 mps 746 mmHg 83%
    14:00 -4°C° 0 mm 7 mps 746 mmHg 83%
    15:00 -4°C° 0 mm 7 mps 745 mmHg 84%
    16:00 -4°C° 0 mm 7 mps 745 mmHg 86%
    17:00 -4°C° 0 mm 6 mps 745 mmHg 87%
    18:00 -4°C° 0 mm 6 mps 745 mmHg 89%
    19:00 -4°C° 0.1 mm 6 mps 744 mmHg 90%
    20:00 -4°C° 0.1 mm 6 mps 744 mmHg 91%
    21:00 -4°C° 0.1 mm 6 mps 744 mmHg 92%
    22:00 -4°C° 0.1 mm 6 mps 744 mmHg 92%
    23:00 -3°C° 0.1 mm 6 mps 743 mmHg 93%

    Day after tomorrow, 21 February, Thursday

    Time Temperature Precipitation Wind Pressure Humidity
    00:00 -3°C° 0.1 mm 6 mps 743 mmHg 93%
    01:00 -3°C° 0.3 mm 6 mps 743 mmHg 93%
    02:00 -3°C° 0.3 mm 6 mps 742 mmHg 93%
    03:00 -1°C° 0.3 mm 5 mps 742 mmHg 93%
    04:00 -1°C° 0 mm 5 mps 742 mmHg 93%
    05:00 -2°C° 0 mm 5 mps 741 mmHg 94%
    06:00 -2°C° 0 mm 5 mps 741 mmHg 94%
    07:00 -2°C° 0 mm 5 mps 740 mmHg 94%
    08:00 -2°C° 0 mm 5 mps 740 mmHg 95%
    09:00 -3°C° 0 mm 6 mps 740 mmHg 95%
    10:00 -3°C° 0.1 mm 6 mps 739 mmHg 95%
    11:00 -3°C° 0.1 mm 6 mps 739 mmHg 94%
    12:00 -3°C° 0.1 mm 6 mps 739 mmHg 94%
    13:00 -3°C° 0.5 mm 6 mps 739 mmHg 93%
    14:00 -2°C° 0.5 mm 5 mps 739 mmHg 93%
    15:00 -2°C° 0.5 mm 5 mps 739 mmHg 92%
    16:00 -4°C° 0.1 mm 5 mps 739 mmHg 91%
    17:00 -5°C° 0.1 mm 4 mps 739 mmHg 89%
    18:00 -8°C° 0.1 mm 4 mps 739 mmHg 88%
    19:00 -8°C° 0 mm 4 mps 739 mmHg 89%
    20:00 -8°C° 0 mm 4 mps 739 mmHg 90%
    21:00 -8°C° 0 mm 4 mps 739 mmHg 91%
    22:00 -7°C° 0 mm 4 mps 739 mmHg 92%
    23:00 -7°C° 0 mm 4 mps 739 mmHg 92%

    22 February, Friday

    Time Temperature Precipitation Wind Pressure Humidity
    00:00 -7°C° 0 mm 4 mps 738 mmHg 93%
    01:00 -7°C° 0.1 mm 4 mps 738 mmHg 93%
    02:00 -7°C° 0.1 mm 4 mps 738 mmHg 93%
    03:00 -7°C° 0.1 mm 4 mps 738 mmHg 93%
    04:00 -7°C° 0.2 mm 5 mps 738 mmHg 92%
    05:00 -8°C° 0.2 mm 6 mps 738 mmHg 92%
    06:00 -9°C° 0.2 mm 6 mps 738 mmHg 91%
    07:00 -10°C° 0.1 mm 6 mps 739 mmHg 90%
    08:00 -11°C° 0.1 mm 6 mps 739 mmHg 89%
    09:00 -11°C° 0.1 mm 6 mps 740 mmHg 87%
    10:00 -11°C° 0.1 mm 6 mps 741 mmHg 87%
    11:00 -11°C° 0.1 mm 6 mps 741 mmHg 86%
    12:00 -12°C° 0.1 mm 6 mps 742 mmHg 86%
    13:00 -12°C° 0.1 mm 6 mps 742 mmHg 86%
    14:00 -12°C° 0.1 mm 6 mps 743 mmHg 85%
    15:00 -12°C° 0.1 mm 6 mps 743 mmHg 85%
    16:00 -12°C° 0.1 mm 5 mps 744 mmHg 86%
    17:00 -13°C° 0.1 mm 5 mps 745 mmHg 87%
    18:00 -14°C° 0.1 mm 4 mps 746 mmHg 88%
    19:00 -14°C° 0 mm 4 mps 746 mmHg 89%
    20:00 -14°C° 0 mm 3 mps 747 mmHg 91%
    21:00 -15°C° 0 mm 3 mps 747 mmHg 92%
    22:00 -15°C° 0 mm 3 mps 748 mmHg 93%
    23:00 -16°C° 0 mm 3 mps 748 mmHg 93%

    23 February, Saturday

    Time Temperature Precipitation Wind Pressure Humidity
    00:00 -17°C° 0 mm 3 mps 748 mmHg 94%
    01:00 -18°C° 0 mm 3 mps 749 mmHg 94%
    02:00 -18°C° 0 mm 3 mps 749 mmHg 95%
    03:00 -19°C° 0 mm 3 mps 750 mmHg 95%
    04:00 -18°C° 0 mm 2 mps 750 mmHg 95%
    05:00 -18°C° 0 mm 2 mps 750 mmHg 96%
    06:00 -18°C° 0 mm 2 mps 751 mmHg 96%
    07:00 -17°C° 0 mm 2 mps 751 mmHg 96%
    08:00 -17°C° 0 mm 2 mps 752 mmHg 96%
    09:00 -16°C° 0 mm 2 mps 752 mmHg 95%
    10:00 -15°C° 0 mm 2 mps 753 mmHg 94%
    11:00 -12°C° 0 mm 1 mps 753 mmHg 92%
    12:00 -10°C° 0 mm 1 mps 754 mmHg 90%
    13:00 -10°C° 0 mm 1 mps 754 mmHg 88%
    14:00 -9°C° 0 mm 1 mps 754 mmHg 87%
    15:00 -8°C° 0 mm 0 mps 754 mmHg 85%
    16:00 -9°C° 0 mm 0 mps 755 mmHg 87%
    17:00 -10°C° 0 mm 0 mps 755 mmHg 89%
    18:00 -11°C° 0 mm 0 mps 756 mmHg 91%
    19:00 -10°C° 0 mm 1 mps 756 mmHg 92%
    20:00 -10°C° 0 mm 1 mps 757 mmHg 93%
    21:00 -10°C° 0 mm 1 mps 757 mmHg 94%
    22:00 -11°C° 0 mm 1 mps 757 mmHg 95%
    23:00 -13°C° 0 mm 2 mps 757 mmHg 95%

    24 February, Sunday

    Time Temperature Precipitation Wind Pressure Humidity
    00:00 -14°C° 0 mm 2 mps 758 mmHg 96%
    01:00 -14°C° 0 mm 2 mps 758 mmHg 96%
    02:00 -15°C° 0 mm 2 mps 758 mmHg 95%
    03:00 -16°C° 0 mm 2 mps 758 mmHg 95%
    04:00 -16°C° 0 mm 2 mps 758 mmHg 95%
    05:00 -17°C° 0 mm 3 mps 758 mmHg 95%
    06:00 -18°C° 0 mm 3 mps 758 mmHg 96%
    07:00 -17°C° 0 mm 3 mps 758 mmHg 95%
    08:00 -16°C° 0 mm 3 mps 759 mmHg 95%
    09:00 -16°C° 0 mm 3 mps 759 mmHg 95%
    10:00 -15°C° 0 mm 3 mps 759 mmHg 94%
    11:00 -14°C° 0 mm 3 mps 759 mmHg 94%
    12:00 -13°C° 0 mm 3 mps 759 mmHg 93%
    13:00 -13°C° 0 mm 3 mps 759 mmHg 92%
    14:00 -12°C° 0 mm 4 mps 759 mmHg 92%
    15:00 -12°C° 0 mm 4 mps 759 mmHg 91%
    16:00 -13°C° 0 mm 3 mps 759 mmHg 92%
    17:00 -14°C° 0 mm 3 mps 759 mmHg 93%
    18:00 -15°C° 0 mm 3 mps 759 mmHg 93%
    19:00 -15°C° 0 mm 3 mps 760 mmHg 94%
    20:00 -14°C° 0 mm 2 mps 760 mmHg 94%
    21:00 -15°C° 0 mm 2 mps 760 mmHg 94%
    22:00 -15°C° 0 mm 2 mps 760 mmHg 94%
    23:00 -15°C° 0 mm 2 mps 760 mmHg 94%
    Show more